Tracking 21516 objects as of 1-Oct-2020
HD Live streaming from Space Station
objects crossing your sky now

SL-3 DEB

Track SL-3 DEB now!
10-day predictions


NORAD ID: 14632
Int'l Code: 1977-002E
Perigee: 861.4 km
Apogee: 937.1 km
Inclination: 81.3 °
Period: 102.8 minutes
Semi major axis: 7270 km
RCS: 0.006 m2 (small)
Launch date: January 6, 1977
Source: Commonwealth of Independent States (former USSR) (CIS)
Launch site: PLESETSK MISSILE AND SPACE COMPLEX (PKMTR)

Note: This is SATELLITE DEBRIS
aabbcc
Your satellite tracking list
Your tracking list is empty




NASA's NSSDC Master Catalog

Two Line Element Set (TLE):
1 14632U 77002E   20274.46253537  .00000008  00000-0 -30156-5 0  9991
2 14632  81.2798  14.2297 0052091 343.1774 137.8737 14.00491607 59039
Source of the keplerian elements: AFSPC